STARLINK-34312, 64711

Orbit data source: Space-Track

STARLINK-34312, 64711 is a payload satellite owned by SpaceX/Seattle (US) in LEO that was launched on Sat, 28 Jun 2025 UTC via an FALCON 9 launch vehicle from the Air Force Western Test Range (AFWTR). Payload-class satellites include a variety of spacecraft equipped with specific instruments for various scientific and technological missions. These include communications satellites like Starlink; space stations such as the ISS; scientific satellites like the Hubble; Earth observation satellites from companies like Planet Labs, Umbra, and HawkEye 360; GPS; miniature CubeSats for education and research; and military/defense satellites.

Loading next visibility...
Identifier
64711, 2025-142R
Orbit
LEO
Last TLE update
4 hours ago
Origin
Manufacturer
SpaceX/Seattle
Mission
Operational spacecraft
Bus & Motor
STARLINK V2MO, Unknown motor
Mass
575 kg wet, ~530 kg dry
Launch date (UTC)
2025-06-28 (3 weeks ago)
Launch vehicle
FALCON 9
Launch site
Air Force Western Test Range (AFWTR)
Object type
Payload
Rocket body
Debris
Shape & HBR
Unknown
Radar Cross Section
Large (>1 m²)

Expand to show TLE details & history

TLE from 4 hours ago
0 STARLINK-34312
1 64711U 25142R   25199.56553334 -.00220021  00000-0 -34759-2 0  9992
2 64711  70.0004 194.6867 0003704 279.6112  80.4657 15.54042337  4328
Epoch: 2025-07-18T13:34Z
TLE epoch observation values (Epoch: 2025-07-18T13:34:22.08Z)
Latitude
-0.00003°
Longitude
54.47952°
Altitude
407.006 km
Speed
7.667 km/s
True Right ascension
12h 58m 44s
True Declination
0° 00' 00"
Sunlit
Object was in daylight at epoch
Visualization orbit readout
Latitude
-30.74345°
Longitude
-113.54653°
Altitude
415.179 km
Speed
7.661 km/s
Apparent Right ascension
22h 33m 15s
Apparent Declination
-50° 56' 37"
Sunlit
Object is in daylight
Visualization observer readout
Local Sidereal Time
06:21:08
Azimuth
233.719° WSW
Elevation
-45.844°
Doppler factor
1
Orbital elements
Apogee altitude
405.347 km
Perigee altitude
400.324 km
Semi-major axis
6,780.972 km
Eccentricity
0.00037
Inclination
70.0004°
RAAN
194.6867°
Arg. of periapsis
279.6112°
True anomaly
80.50756°
Mean anomaly
80.4657°
Eccentric anomaly
80.48663°
Mean motion
3.88692 °/min
Orbital period
92.62 mins
BSTAR
-0.0034759
Loading maneuver chart data...
Loading SW <> Apogee altitude chart data...
Loading historical data...
Loading historical data...
Loading historical data...
Loading historical data...
Loading historical data...
Loading historical data...
Loading historical data...
|